EN

Hourly Weather Panama

Today, 7 March, Sunday

Time Temperature Precipitation Wind Pressure Humidity
00:00 +10°C° 0 mm 2 mps 602 mmHg 42%
01:00 +10°C° 0 mm 2 mps 601 mmHg 41%
02:00 +10°C° 0 mm 2 mps 601 mmHg 41%
03:00 +9°C° 0 mm 2 mps 601 mmHg 39%
04:00 +9°C° 0 mm 2 mps 601 mmHg 37%
05:00 +9°C° 0 mm 2 mps 601 mmHg 36%
06:00 +12°C° 0 mm 2 mps 602 mmHg 32%
07:00 +14°C° 0 mm 2 mps 604 mmHg 27%
08:00 +17°C° 0 mm 2 mps 606 mmHg 22%
09:00 +20°C° 0 mm 4 mps 607 mmHg 18%
10:00 +23°C° 0 mm 5 mps 608 mmHg 14%
11:00 +27°C° 0 mm 6 mps 609 mmHg 10%
12:00 +28°C° 0 mm 8 mps 609 mmHg 10%
13:00 +28°C° 0 mm 9 mps 608 mmHg 10%
14:00 +29°C° 0 mm 10 mps 608 mmHg 10%
15:00 +28°C° 0 mm 9 mps 608 mmHg 11%
16:00 +27°C° 0 mm 9 mps 608 mmHg 12%
17:00 +24°C° 0 mm 8 mps 607 mmHg 13%
18:00 +21°C° 0 mm 7 mps 607 mmHg 18%
19:00 +17°C° 0 mm 5 mps 606 mmHg 23%
20:00 +14°C° 0 mm 4 mps 606 mmHg 27%
21:00 +12°C° 0 mm 3 mps 605 mmHg 33%
22:00 +10°C° 0 mm 2 mps 605 mmHg 39%
23:00 +10°C° 0 mm 1 mps 604 mmHg 44%

Tomorrow, 8 March, Monday

Time Temperature Precipitation Wind Pressure Humidity
00:00 +9°C° 0 mm 1 mps 603 mmHg 50%
01:00 +8°C° 0 mm 1 mps 603 mmHg 55%
02:00 +6°C° 0 mm 0 mps 602 mmHg 61%
03:00 +6°C° 0 mm 0 mps 602 mmHg 63%
04:00 +5°C° 0 mm 0 mps 602 mmHg 65%
05:00 +5°C° 0 mm 0 mps 602 mmHg 66%
06:00 +8°C° 0 mm 0 mps 604 mmHg 56%
07:00 +11°C° 0 mm 0 mps 605 mmHg 46%
08:00 +13°C° 0 mm 0 mps 607 mmHg 35%
09:00 +18°C° 0 mm 1 mps 608 mmHg 29%
10:00 +21°C° 0 mm 1 mps 609 mmHg 23%
11:00 +24°C° 0 mm 1 mps 609 mmHg 17%
12:00 +25°C° 0 mm 2 mps 609 mmHg 15%
13:00 +27°C° 0 mm 2 mps 609 mmHg 12%
14:00 +29°C° 0 mm 2 mps 609 mmHg 10%
15:00 +28°C° 0 mm 3 mps 609 mmHg 10%
16:00 +28°C° 0 mm 3 mps 609 mmHg 11%
17:00 +28°C° 0 mm 3 mps 608 mmHg 11%
18:00 +24°C° 0 mm 3 mps 608 mmHg 16%
19:00 +20°C° 0 mm 3 mps 607 mmHg 21%
20:00 +16°C° 0 mm 3 mps 606 mmHg 26%
21:00 +15°C° 0 mm 2 mps 606 mmHg 29%
22:00 +14°C° 0 mm 1 mps 606 mmHg 32%
23:00 +13°C° 0 mm 1 mps 605 mmHg 35%

Day after tomorrow, 9 March, Tuesday

Time Temperature Precipitation Wind Pressure Humidity
00:00 +11°C° 0 mm 0 mps 605 mmHg 39%
01:00 +10°C° 0 mm 0 mps 604 mmHg 44%
02:00 +10°C° 0 mm 0 mps 604 mmHg 49%
03:00 +9°C° 0 mm 0 mps 603 mmHg 51%
04:00 +9°C° 0 mm 0 mps 603 mmHg 53%
05:00 +8°C° 0 mm 0 mps 603 mmHg 55%
06:00 +11°C° 0 mm 0 mps 604 mmHg 45%
07:00 +14°C° 0 mm 0 mps 606 mmHg 34%
08:00 +18°C° 0 mm 0 mps 608 mmHg 24%
09:00 +20°C° 0 mm 0 mps 608 mmHg 20%
10:00 +25°C° 0 mm 1 mps 609 mmHg 16%
11:00 +27°C° 0 mm 1 mps 610 mmHg 11%
12:00 +28°C° 0 mm 2 mps 609 mmHg 10%
13:00 +29°C° 0 mm 3 mps 609 mmHg 8%
14:00 +32°C° 0 mm 4 mps 609 mmHg 6%
15:00 +30°C° 0 mm 5 mps 608 mmHg 7%
16:00 +29°C° 0 mm 5 mps 608 mmHg 7%
17:00 +28°C° 0 mm 6 mps 608 mmHg 8%
18:00 +23°C° 0 mm 5 mps 607 mmHg 12%
19:00 +20°C° 0 mm 4 mps 606 mmHg 17%
20:00 +16°C° 0 mm 3 mps 605 mmHg 22%
21:00 +15°C° 0 mm 2 mps 605 mmHg 29%
22:00 +13°C° 0 mm 2 mps 604 mmHg 35%
23:00 +12°C° 0 mm 1 mps 603 mmHg 42%

10 March, Wednesday

Time Temperature Precipitation Wind Pressure Humidity
00:00 +11°C° 0 mm 1 mps 603 mmHg 41%
01:00 +11°C° 0 mm 1 mps 602 mmHg 41%
02:00 +10°C° 0 mm 1 mps 602 mmHg 40%
03:00 +10°C° 0 mm 1 mps 602 mmHg 41%
04:00 +9°C° 0 mm 1 mps 601 mmHg 42%
05:00 +8°C° 0 mm 0 mps 601 mmHg 42%
06:00 +11°C° 0 mm 0 mps 603 mmHg 33%
07:00 +15°C° 0 mm 0 mps 605 mmHg 24%
08:00 +18°C° 0 mm 0 mps 606 mmHg 15%
09:00 +22°C° 0 mm 1 mps 607 mmHg 13%
10:00 +24°C° 0 mm 1 mps 607 mmHg 11%
11:00 +27°C° 0 mm 1 mps 608 mmHg 9%
12:00 +28°C° 0 mm 2 mps 608 mmHg 8%
13:00 +29°C° 0 mm 3 mps 607 mmHg 7%
14:00 +30°C° 0 mm 4 mps 607 mmHg 7%
15:00 +29°C° 0 mm 6 mps 607 mmHg 8%
16:00 +28°C° 0 mm 8 mps 606 mmHg 10%
17:00 +27°C° 0 mm 9 mps 606 mmHg 11%
18:00 +23°C° 0 mm 8 mps 605 mmHg 15%
19:00 +20°C° 0 mm 8 mps 605 mmHg 20%
20:00 +16°C° 0 mm 7 mps 604 mmHg 24%
21:00 +15°C° 0 mm 6 mps 604 mmHg 30%
22:00 +14°C° 0 mm 5 mps 604 mmHg 36%
23:00 +12°C° 0 mm 4 mps 603 mmHg 42%

11 March, Thursday

Time Temperature Precipitation Wind Pressure Humidity
00:00 +11°C° 0 mm 3 mps 603 mmHg 43%
01:00 +10°C° 0 mm 3 mps 602 mmHg 45%
02:00 +9°C° 0 mm 2 mps 601 mmHg 46%
03:00 +9°C° 0 mm 2 mps 601 mmHg 46%
04:00 +8°C° 0 mm 2 mps 601 mmHg 45%
05:00 +8°C° 0 mm 2 mps 601 mmHg 44%
06:00 +12°C° 0 mm 2 mps 602 mmHg 37%
07:00 +15°C° 0 mm 2 mps 603 mmHg 29%
08:00 +19°C° 0 mm 1 mps 605 mmHg 21%
09:00 +21°C° 0 mm 3 mps 606 mmHg 17%
10:00 +25°C° 0 mm 5 mps 607 mmHg 12%
11:00 +28°C° 0 mm 7 mps 608 mmHg 8%
12:00 +28°C° 0 mm 8 mps 607 mmHg 8%
13:00 +28°C° 0 mm 9 mps 607 mmHg 8%
14:00 +29°C° 0 mm 10 mps 606 mmHg 9%
15:00 +27°C° 0 mm 10 mps 606 mmHg 10%
16:00 +26°C° 0 mm 9 mps 605 mmHg 12%
17:00 +24°C° 0 mm 9 mps 605 mmHg 14%
18:00 +21°C° 0 mm 8 mps 604 mmHg 22%
19:00 +16°C° 0 mm 6 mps 604 mmHg 30%
20:00 +13°C° 0 mm 5 mps 603 mmHg 38%
21:00 +12°C° 0 mm 4 mps 603 mmHg 45%
22:00 +11°C° 0 mm 4 mps 603 mmHg 51%
23:00 +10°C° 0 mm 3 mps 603 mmHg 58%

12 March, Friday

Time Temperature Precipitation Wind Pressure Humidity
00:00 +10°C° 0 mm 3 mps 602 mmHg 56%
01:00 +9°C° 0 mm 3 mps 602 mmHg 54%
02:00 +9°C° 0 mm 3 mps 601 mmHg 53%
03:00 +9°C° 0 mm 3 mps 601 mmHg 51%
04:00 +9°C° 0 mm 3 mps 601 mmHg 48%
05:00 +8°C° 0 mm 3 mps 601 mmHg 46%
06:00 +10°C° 0 mm 5 mps 602 mmHg 39%
07:00 +14°C° 0 mm 6 mps 604 mmHg 32%
08:00 +17°C° 0 mm 7 mps 605 mmHg 25%
09:00 +19°C° 0 mm 9 mps 606 mmHg 21%
10:00 +22°C° 0 mm 10 mps 606 mmHg 17%
11:00 +26°C° 0 mm 12 mps 607 mmHg 13%
12:00 +26°C° 0 mm 12 mps 607 mmHg 13%
13:00 +26°C° 0 mm 12 mps 606 mmHg 13%
14:00 +27°C° 0 mm 12 mps 606 mmHg 13%
15:00 +24°C° 0 mm 11 mps 605 mmHg 15%
16:00 +23°C° 0 mm 11 mps 605 mmHg 18%
17:00 +21°C° 0 mm 10 mps 605 mmHg 20%
18:00 +18°C° 0 mm 8 mps 604 mmHg 26%
19:00 +15°C° 0 mm 7 mps 604 mmHg 33%
20:00 +12°C° 0 mm 5 mps 603 mmHg 39%
21:00 +10°C° 0 mm 5 mps 603 mmHg 44%
22:00 +10°C° 0 mm 4 mps 603 mmHg 48%
23:00 +10°C° 0 mm 4 mps 602 mmHg 52%
Show more

We Need Your Consent

Meteoprog and our Service Providers may store and access personal data such as cookies, device identifiers or other similar technologies on your device and process such data to personalise content and ads, as well as provide social media features and to analyse the traffic.

  • Store and/or access information on your device

    Cookies, device identifiers or other information can be stored or accessed on your device for the purposes indicated above.

  • Personalised ads and content, ad and content measurement, audience insights, and products development

    Ads and content can be personalised based on a profile. More data can be added to better personalise ads and content. Ad and content performance can be measured. Insights about the audience who saw the ads and content can be derived. Such data can be used to develop or improve user’s experience, systems and software.

By clicking ‘I Agree’ you will allow the use of indicated cookies, device identifiers, web beacons or other similar technologies. Your settings can be changed in the browser on your device.

For certain purposes, legitimate interests may be relied on, rather than consent. You can read more about this in our Privacy and Cookie Policy.